• In Deutschland
  • Länderverzeichnis
  • Für 7 Tage
  • Wassertemperatur
  • Satellitenkarten
  • Wetterkarte
  • Widgets
  • user-avatar
    Anmelden

    Stündliche Wetter Ch'ŏngjin

    Heute, 20 November, Montag

    Zeit Temperatur Niederschläge Wind Luftdruck Luftfeuchtigkeit
    00:00 -10°C° 0 mm 3 m/S 767 mmHg 57%
    01:00 -10°C° 0 mm 3 m/S 767 mmHg 55%
    02:00 -10°C° 0 mm 3 m/S 767 mmHg 54%
    03:00 -11°C° 0 mm 4 m/S 767 mmHg 52%
    04:00 -11°C° 0 mm 4 m/S 767 mmHg 51%
    05:00 -11°C° 0 mm 4 m/S 767 mmHg 51%
    06:00 -11°C° 0 mm 4 m/S 767 mmHg 50%
    07:00 -10°C° 0 mm 4 m/S 767 mmHg 49%
    08:00 -9°C° 0 mm 4 m/S 767 mmHg 48%
    09:00 -8°C° 0 mm 4 m/S 767 mmHg 40%
    10:00 -6°C° 0 mm 3 m/S 767 mmHg 40%
    11:00 -5°C° 0 mm 3 m/S 766 mmHg 39%
    12:00 -2°C° 0 mm 3 m/S 766 mmHg 39%
    13:00 -2°C° 0 mm 3 m/S 765 mmHg 41%
    14:00 -2°C° 0 mm 3 m/S 765 mmHg 43%
    15:00 -2°C° 0 mm 4 m/S 764 mmHg 45%
    16:00 -3°C° 0 mm 4 m/S 765 mmHg 51%
    17:00 -4°C° 0 mm 4 m/S 766 mmHg 56%
    18:00 -5°C° 0 mm 4 m/S 767 mmHg 61%
    19:00 -7°C° 0 mm 4 m/S 767 mmHg 62%
    20:00 -7°C° 0 mm 4 m/S 768 mmHg 63%
    21:00 -8°C° 0 mm 4 m/S 768 mmHg 63%
    22:00 -7°C° 0 mm 3 m/S 769 mmHg 62%
    23:00 -7°C° 0 mm 3 m/S 769 mmHg 62%

    Morgen, 21 November, Dienstag

    Zeit Temperatur Niederschläge Wind Luftdruck Luftfeuchtigkeit
    00:00 -7°C° 0 mm 3 m/S 769 mmHg 61%
    01:00 -7°C° 0 mm 3 m/S 769 mmHg 57%
    02:00 -6°C° 0 mm 2 m/S 770 mmHg 53%
    03:00 -6°C° 0 mm 2 m/S 770 mmHg 49%
    04:00 -6°C° 0 mm 2 m/S 770 mmHg 47%
    05:00 -6°C° 0 mm 3 m/S 769 mmHg 45%
    06:00 -6°C° 0 mm 3 m/S 769 mmHg 43%
    07:00 -5°C° 0 mm 3 m/S 769 mmHg 40%
    08:00 -3°C° 0 mm 2 m/S 769 mmHg 38%
    09:00 -1°C° 0 mm 2 m/S 769 mmHg 35%
    10:00 +1°C° 0 mm 3 m/S 768 mmHg 34%
    11:00 +3°C° 0 mm 3 m/S 767 mmHg 33%
    12:00 +5°C° 0 mm 3 m/S 766 mmHg 33%
    13:00 +5°C° 0 mm 4 m/S 765 mmHg 35%
    14:00 +5°C° 0 mm 4 m/S 764 mmHg 38%
    15:00 +5°C° 0 mm 4 m/S 763 mmHg 40%
    16:00 +4°C° 0 mm 4 m/S 763 mmHg 48%
    17:00 +1°C° 0 mm 4 m/S 763 mmHg 55%
    18:00 -1°C° 0 mm 4 m/S 763 mmHg 63%
    19:00 0°C° 0 mm 3 m/S 763 mmHg 62%
    20:00 0°C° 0 mm 3 m/S 763 mmHg 61%
    21:00 0°C° 0 mm 3 m/S 762 mmHg 60%
    22:00 +1°C° 0 mm 2 m/S 762 mmHg 63%
    23:00 +1°C° 0 mm 2 m/S 761 mmHg 66%

    übermorgen, 22 November, Mittwoch

    Zeit Temperatur Niederschläge Wind Luftdruck Luftfeuchtigkeit
    00:00 +1°C° 0 mm 2 m/S 761 mmHg 69%
    01:00 +2°C° 0 mm 2 m/S 760 mmHg 70%
    02:00 +1°C° 0 mm 3 m/S 759 mmHg 71%
    03:00 0°C° 0 mm 4 m/S 759 mmHg 72%
    04:00 0°C° 0 mm 4 m/S 758 mmHg 73%
    05:00 0°C° 0 mm 4 m/S 758 mmHg 74%
    06:00 0°C° 0 mm 5 m/S 758 mmHg 74%
    07:00 0°C° 0 mm 5 m/S 758 mmHg 70%
    08:00 0°C° 0 mm 4 m/S 758 mmHg 65%
    09:00 +1°C° 0 mm 4 m/S 758 mmHg 60%
    10:00 +1°C° 0 mm 5 m/S 758 mmHg 53%
    11:00 +2°C° 0 mm 5 m/S 758 mmHg 46%
    12:00 +2°C° 0 mm 6 m/S 758 mmHg 38%
    13:00 +1°C° 0 mm 6 m/S 758 mmHg 38%
    14:00 -1°C° 0 mm 7 m/S 758 mmHg 38%
    15:00 -1°C° 0 mm 8 m/S 758 mmHg 38%
    16:00 -4°C° 0 mm 8 m/S 759 mmHg 42%
    17:00 -5°C° 0 mm 9 m/S 759 mmHg 46%
    18:00 -6°C° 0 mm 9 m/S 760 mmHg 50%
    19:00 -8°C° 0 mm 9 m/S 760 mmHg 49%
    20:00 -8°C° 0 mm 9 m/S 761 mmHg 48%
    21:00 -7°C° 0 mm 8 m/S 761 mmHg 47%
    22:00 -8°C° 0 mm 7 m/S 762 mmHg 48%
    23:00 -8°C° 0 mm 6 m/S 762 mmHg 49%

    23 November, Donnerstag

    Zeit Temperatur Niederschläge Wind Luftdruck Luftfeuchtigkeit
    00:00 -7°C° 0 mm 5 m/S 762 mmHg 51%
    01:00 -7°C° 0 mm 5 m/S 762 mmHg 52%
    02:00 -7°C° 0 mm 4 m/S 762 mmHg 54%
    03:00 -7°C° 0 mm 4 m/S 761 mmHg 55%
    04:00 -7°C° 0 mm 4 m/S 761 mmHg 56%
    05:00 -7°C° 0 mm 4 m/S 761 mmHg 56%
    06:00 -7°C° 0 mm 4 m/S 761 mmHg 57%
    07:00 -7°C° 0 mm 4 m/S 761 mmHg 52%
    08:00 -6°C° 0 mm 5 m/S 761 mmHg 47%
    09:00 -6°C° 0 mm 5 m/S 761 mmHg 42%
    10:00 -5°C° 0 mm 5 m/S 761 mmHg 39%
    11:00 -4°C° 0 mm 5 m/S 760 mmHg 36%
    12:00 -2°C° 0 mm 5 m/S 760 mmHg 33%
    13:00 -2°C° 0 mm 5 m/S 760 mmHg 34%
    14:00 -2°C° 0 mm 5 m/S 759 mmHg 35%
    15:00 -3°C° 0 mm 6 m/S 759 mmHg 36%
    16:00 -4°C° 0 mm 5 m/S 759 mmHg 41%
    17:00 -5°C° 0 mm 5 m/S 760 mmHg 46%
    18:00 -6°C° 0 mm 5 m/S 760 mmHg 50%
    19:00 -5°C° 0 mm 4 m/S 760 mmHg 53%
    20:00 -7°C° 0 mm 4 m/S 761 mmHg 56%
    21:00 -6°C° 0 mm 3 m/S 761 mmHg 58%
    22:00 -6°C° 0 mm 3 m/S 761 mmHg 58%
    23:00 -6°C° 0 mm 3 m/S 761 mmHg 58%

    24 November, Freitag

    Zeit Temperatur Niederschläge Wind Luftdruck Luftfeuchtigkeit
    00:00 -6°C° 0 mm 3 m/S 761 mmHg 57%
    01:00 -7°C° 0 mm 3 m/S 761 mmHg 57%
    02:00 -7°C° 0 mm 3 m/S 761 mmHg 56%
    03:00 -7°C° 0 mm 3 m/S 761 mmHg 56%
    04:00 -7°C° 0 mm 3 m/S 761 mmHg 57%
    05:00 -6°C° 0 mm 2 m/S 761 mmHg 58%
    06:00 -7°C° 0 mm 2 m/S 761 mmHg 59%
    07:00 -6°C° 0 mm 2 m/S 761 mmHg 56%
    08:00 -5°C° 0 mm 2 m/S 761 mmHg 53%
    09:00 -4°C° 0 mm 2 m/S 761 mmHg 50%
    10:00 -4°C° 0 mm 3 m/S 760 mmHg 47%
    11:00 -2°C° 0 mm 3 m/S 760 mmHg 44%
    12:00 -2°C° 0 mm 4 m/S 760 mmHg 41%
    13:00 -2°C° 0 mm 4 m/S 760 mmHg 42%
    14:00 -4°C° 0 mm 5 m/S 759 mmHg 43%
    15:00 -4°C° 0 mm 5 m/S 759 mmHg 43%
    16:00 -5°C° 0 mm 6 m/S 760 mmHg 44%
    17:00 -8°C° 0 mm 7 m/S 762 mmHg 45%
    18:00 -9°C° 0 mm 7 m/S 763 mmHg 45%
    19:00 -11°C° 0 mm 7 m/S 763 mmHg 45%
    20:00 -11°C° 0 mm 7 m/S 764 mmHg 45%
    21:00 -12°C° 0 mm 7 m/S 765 mmHg 45%
    22:00 -12°C° 0 mm 7 m/S 766 mmHg 46%
    23:00 -11°C° 0 mm 6 m/S 766 mmHg 46%

    25 November, Samstag

    Zeit Temperatur Niederschläge Wind Luftdruck Luftfeuchtigkeit
    00:00 -12°C° 0 mm 6 m/S 766 mmHg 46%
    01:00 -12°C° 0 mm 5 m/S 767 mmHg 47%
    02:00 -11°C° 0 mm 4 m/S 767 mmHg 48%
    03:00 -10°C° 0 mm 3 m/S 768 mmHg 49%
    04:00 -10°C° 0 mm 3 m/S 768 mmHg 50%
    05:00 -9°C° 0 mm 3 m/S 768 mmHg 51%
    06:00 -9°C° 0 mm 3 m/S 768 mmHg 51%
    07:00 -8°C° 0 mm 3 m/S 768 mmHg 49%
    08:00 -7°C° 0 mm 3 m/S 768 mmHg 47%
    09:00 -6°C° 0 mm 3 m/S 768 mmHg 45%
    10:00 -5°C° 0,1 mm 3 m/S 767 mmHg 49%
    11:00 -4°C° 0,1 mm 4 m/S 766 mmHg 53%
    12:00 -3°C° 0,1 mm 4 m/S 766 mmHg 56%
    13:00 -2°C° 0,2 mm 5 m/S 764 mmHg 58%
    14:00 -2°C° 0,2 mm 5 m/S 763 mmHg 60%
    15:00 -1°C° 0,2 mm 5 m/S 762 mmHg 62%
    16:00 -2°C° 0,2 mm 5 m/S 762 mmHg 68%
    17:00 -2°C° 0,2 mm 5 m/S 761 mmHg 73%
    18:00 -4°C° 0,2 mm 5 m/S 760 mmHg 79%
    19:00 -4°C° 0,4 mm 5 m/S 759 mmHg 81%
    20:00 -4°C° 0,4 mm 5 m/S 758 mmHg 82%
    21:00 -4°C° 0,4 mm 6 m/S 757 mmHg 84%
    22:00 -4°C° 0,1 mm 6 m/S 757 mmHg 85%
    23:00 -5°C° 0,1 mm 6 m/S 756 mmHg 86%
    Mehr zeigen